Simultaneous Nadir Overpasses (SNOs) Predictions

Prediction of SNOs between METOP-B and TERRA Satellite Orbit:

Table of predicted SNOs for the next 14.0 days since TLE Epoch: 2/24/2024
Index Date (METOP-B) Time (METOP-B) Lat,Lon (METOP-B) SZA (METOP-B ) Date (TERRA) Time (TERRA) Lat,Lon (TERRA) SZA (TERRA ) Distance(km) Time Diff (sec)
1 02/24/2024 06:28:03 -80.39, -72.37 89.39 02/24/2024 06:28:10 -80.40, -72.22 89.37 2.88 7
2 02/24/2024 07:18:39 80.51, 96.36 90.79 02/24/2024 07:17:27 80.51, 96.52 90.79 2.94 72
3 02/26/2024 20:58:26 -80.33, 69.21 90.46 02/26/2024 20:59:29 -80.33, 69.29 90.44 1.51 63
4 02/26/2024 21:49:02 80.44,-122.10 89.72 02/26/2024 21:48:46 80.44,-122.02 89.72 1.58 16
5 02/29/2024 12:19:23 80.39, 19.72 88.66 02/29/2024 12:20:03 80.39, 19.60 88.66 2.26 40
6 02/29/2024 13:10:01 -80.48,-171.85 91.21 02/29/2024 13:09:23 -80.48,-171.90 91.22 0.96 38
7 03/03/2024 03:40:24 -80.40, -30.40 92.32 03/03/2024 03:40:41 -80.40, -30.45 92.32 0.89 17
8 03/03/2024 04:31:00 80.51, 138.28 87.86 03/03/2024 04:29:58 80.51, 138.24 87.84 0.75 62
9 03/05/2024 18:10:49 -80.27, 110.37 93.54 03/05/2024 18:12:00 -80.27, 110.54 93.51 3.16 71
10 03/05/2024 19:01:22 80.45, -80.03 86.76 03/05/2024 19:01:15 80.45, -80.18 86.75 2.98 7
11 03/08/2024 09:31:46 80.34, 60.98 85.57 03/08/2024 09:32:33 80.34, 60.92 85.57 1.16 47



Historial Predications of SNOs between METOP-B and TERRA
